Weather Roundup
Issued by NWS Chicago, IL

Home | Current Version | Previous Version | Graphics & Text | Print | Product List | Glossary On
Versions: 1 2 3 4 5 6 7 8 9 10 11 12 13 14 15 16 17 18 19 20 21 22 23 24 25 26 27 28 29 30 31 32 33 34 35 36 37 38 39 40 41 42 43 44 45 46 47 48 49 50
000
NZUS59 KLOT 181900
HRRLOT

CHICAGO AREA WEATHER ROUNDUP
NATIONAL WEATHER SERVICE CHICAGO/ROMEOVILLE IL
200 PM CDT FRI APR 18 2014

NOTE: "FAIR" INDICATES FEW OR NO CLOUDS BELOW 12,000 FEET WITH NO
SIGNIFICANT WEATHER AND/OR OBSTRUCTIONS TO VISIBILITY.

* THESE STATIONS ARE NOT UNDER NWS QUALITY CONTROL. THEY ALSO MAY NOT
  REPORT WEATHER SUCH AS PRECIPITATION OR FOG.

ILZ005-006-012>014-019>023-182000-
NORTHEAST ILLINOIS

CITY           SKY/WX    TMP DP  RH WIND       PRES   REMARKS
OHARE          MOSUNNY   50  33  52 NE9       30.35S
MIDWAY         MOSUNNY   49  36  61 NE9       30.36S
AURORA         SUNNY     59  35  40 VRB6      30.32F
WAUKEGAN       SUNNY     43  31  62 N9        30.36S
DUPAGE AIRPORT SUNNY     59  36  42 NE6       30.32S
WHEELING       SUNNY     47  33  58 E8        30.37S
NORTHERLY IS     N/A     43  34  70 NE14        N/A
$$

WIZ051-052-058>065-066-070>072-182000-
SOUTHEAST WISCONSIN

CITY           SKY/WX    TMP DP  RH WIND       PRES   REMARKS
MILWAUKEE      MOSUNNY   42  30  62 NE10      30.39R
KENOSHA*       SUNNY     46  33  60 E14       30.36S
RACINE*        SUNNY     44  31  60 NE12      30.39R
$$

INZ001>003-010>013-019-020-182000-
NORTHWEST INDIANA

CITY           SKY/WX    TMP DP  RH WIND       PRES   REMARKS
GARY*          MOSUNNY   45  36  70 N12       30.37S
MICHIGAN CITY* NOT AVBL
RENSSELAER*    NOT AVBL
VALPARAISO     SUNNY     51  36  56 NW12      30.34R
$$

LMZ740>746-182000-
SOUTHERN LAKE MICHIGAN

STATION/POSITION TIME  SKY/WX   TEMP WIND        PRES    VSBY
                                AIR  DIR/SP/G
                 (UTC)          (F)  (DEG/KT/KT) (MB)    (MI)
HARRISON CRIB    1800            36   10/ 15/ 17   N/A
BURNHAM HARBOR   1900            42   10/ 13/ 17   N/A
CALUMET HARBOR   1800            40   20/ 12/ 16 1029.1S
BURNS HARBOR     NOT AVBL
MICHIGAN CITY    1800            40  340/ 11/ 13   N/A
$$

ABBREVIATIONS USED IN REMARKS
   TC - TEMPERATURE IN CELSIUS
  WCI - WIND CHILL INDEX
   HX - HEAT INDEX
  VSB - VISIBILITY
$$


USA.gov is the U.S. government's official web portal to all federal, state and local government web resources and services.